sat.trackr.live / text

‹ back to catalog

STARLINK-5236

NORAD 55274 · 2023-010F

PAYLOAD ACTIVE UNKNOWN

§ Identity

Operator
Country
US
Launch date
2023-01-19
Launch site
AFWTR
Launch vehicle
Mass (kg)
RCS (m²)

Purposes: comms

External: N2YO · Heavens-Above · Gunter

§ Orbital elements

Epoch: 2026-09-20T05:14:03.567840Z

Period
96.11 min
Inclination
69.9982°
Eccentricity
0.0003541
Mean motion
14.98331450 rev/d
Perigee alt
569.6 km
Apogee alt
574.5 km
Semi-major
6,950.2 km
B*
1.8487e-5
RAAN
254.1408°
Arg perigee
265.9745°
Mean anomaly
94.1010°
Rev number
20,241

§ Raw data

STARLINK-52361 55274U 23010F   26263.21809685  .00000128  00000+0  18487-4 0  99992 55274  69.9982 254.1408 0003541 265.9745  94.1010 14.98331450202415

JSON: /api/v1/satellites/55274 · /tle

For live sub-satellite position, see the globe view (requires WebGL).

§ Visibility from observer

Set your observer location to see the next 7 days of passes ≥ 10°. The values pass through the URL so the page stays shareable.

No JS? Fill the form by hand. The geolocation button needs JavaScript.